User: anonymous   Login
Location: Unspecified
(0.0000°N, 0.0000°E)
Time: 17:26:51
(UTC+00:00)
Language:

DIAMOND BLUE - Orbit

View from above orbital plane
View from above orbital plane
View from above satellite
View from above satellite

Ground track
Ground track

The orbit data is extracted from the following two-line orbital elements,

1 42786U 17036X   18112.89258004 +.00001210 +00000-0 +57073-4 0  9993
2 42786 097.4067 173.5197 0010481 271.0589 088.9446 15.21335167046172
Epoch (UTC): 22 April 2018 21:25:18
Eccentricity: 0.0010481
inclination: 97.4067°
perigee height: 494 km
apogee height: 509 km
right ascension of ascending node: 173.5197°
argument of perigee: 271.0589°
revolutions per day: 15.21335167
mean anomaly at epoch: 88.9446°
orbit number at epoch: 4617

The dashed part of the orbit path shows where the satellite is in the earth's shadow,  

DLR